N5CSC Weather Reports


time (UTC)temp
F
wind
direction
speed
knots
gust
knots
rain 1hr
in
rain 24hr
in
rain mn
in
humidity
%
barometer
mb
20260903204550 101 355 0.0 4.3 0.00 0.00 0.00 31 1007.8
20260903203053 101 171 0.0 4.3 0.00 0.00 0.00 31 1008.1
20260903201546 101 54 0.0 5.2 0.00 0.00 0.00 32 1008.3
20260903200043 101 138 0.0 3.5 0.00 0.00 0.00 34 1008.3
20260903194540 100 177 0.9 8.7 0.00 0.00 0.00 36 1008.5
20260903193037 100 130 0.0 2.6 0.00 0.00 0.00 36 1008.8
20260903191540 99 144 1.7 8.7 0.00 0.00 0.00 37 1009.0
20260903190032 98 175 0.0 1.7 0.00 0.00 0.00 40 1009.3
20260903184530 99 161 0.9 5.2 0.00 0.00 0.00 40 1009.6
20260903183030 97 195 0.0 6.1 0.00 0.00 0.00 42 1009.9
20260903181523 97 157 0.9 5.2 0.00 0.00 0.00 42 1010.0
20260903180031 96 179 0.0 8.7 0.00 0.00 0.00 45 1010.3
20260903174518 96 92 0.0 4.3 0.00 0.00 0.00 46 1010.6
20260903173013 94 133 0.0 5.2 0.00 0.00 0.00 49 1010.8
20260903171510 94 180 0.9 6.1 0.00 0.00 0.00 51 1011.2
20260903170012 93 169 0.9 5.2 0.00 0.00 0.00 53 1011.3
20260903164504 92 202 0.0 4.3 0.00 0.00 0.00 57 1011.4
20260903163002 91 171 0.9 7.8 0.00 0.00 0.00 59 1011.5
20260903161559 90 182 0.0 5.2 0.00 0.00 0.00 60 1011.7
20260903160057 89 194 1.7 7.0 0.00 0.00 0.00 61 1011.6
20260903154553 88 183 1.7 7.0 0.00 0.00 0.00 63 1011.6
20260903153051 87 173 1.7 7.0 0.00 0.00 0.00 66 1011.5
20260903151548 85 200 2.6 7.8 0.00 0.00 0.00 69 1011.6
20260903150046 85 180 0.0 5.2 0.00 0.00 0.00 71 1011.7
20260903144549 85 165 0.9 7.0 0.00 0.00 0.00 72 1011.7
20260903143046 84 177 1.7 10.4 0.00 0.00 0.00 73 1011.6
20260903141542 83 146 1.7 5.2 0.00 0.00 0.00 74 1011.7
20260903140042 83 173 0.9 8.7 0.00 0.00 0.00 75 1011.9
20260903134541 82 188 1.7 7.0 0.00 0.00 0.00 75 1011.9
20260903133048 82 186 0.0 7.8 0.00 0.00 0.00 75 1011.9
20260903131539 82 190 0.0 4.3 0.00 0.00 0.00 76 1011.9
20260903130038 82 229 0.0 2.6 0.00 0.00 0.00 76 1011.8
20260903124537 81 196 0.0 2.6 0.00 0.00 0.00 76 1011.7
20260903123036 81 178 0.0 4.3 0.00 0.00 0.00 76 1011.7
20260903121548 81 198 0.0 4.3 0.00 0.00 0.00 76 1011.6
20260903120047 81 177 0.9 7.0 0.00 0.00 0.00 76 1011.3
20260903114538 81 185 0.9 6.1 0.00 0.00 0.00 76 1011.3
20260903113035 81 166 0.0 7.0 0.00 0.00 0.00 76 1011.3
20260903111537 81 175 0.0 5.2 0.00 0.00 0.00 77 1011.3
20260903110033 81 176 1.7 6.1 0.00 0.00 0.00 77 1011.2
20260903104532 81 175 0.0 6.1 0.00 0.00 0.00 77 1011.2
20260903103031 81 169 0.9 5.2 0.00 0.00 0.00 77 1011.2
20260903101531 81 165 0.9 5.2 0.00 0.00 0.00 77 1011.2
20260903100031 81 158 0.0 3.5 0.00 0.00 0.00 77 1011.2
20260903094530 81 184 0.9 5.2 0.00 0.00 0.00 77 1011.2
20260903093031 81 175 0.0 4.3 0.00 0.00 0.00 77 1011.1
20260903091529 81 184 0.0 3.5 0.00 0.00 0.00 77 1011.1
20260903090029 81 179 0.0 8.7 0.00 0.00 0.00 77 1011.1
20260903084528 81 175 0.0 3.5 0.00 0.00 0.00 77 1011.1
20260903083026 81 171 0.0 2.6 0.00 0.00 0.00 77 1011.1
20260903081527 81 183 0.0 1.7 0.00 0.00 0.00 77 1011.2
20260903080025 81 173 0.0 0.0 0.00 0.00 0.00 77 1011.2
20260903074524 81 194 0.0 3.5 0.00 0.00 0.00 76 1011.2
20260903073024 81 181 0.0 6.1 0.00 0.00 0.00 75 1011.1
20260903071525 82 177 0.0 5.2 0.00 0.00 0.00 73 1011.0
20260903070019 82 178 0.9 7.8 0.00 0.00 0.00 72 1011.0
20260903064517 82 180 0.9 6.1 0.00 0.00 0.00 72 1011.2
20260903063019 82 148 0.0 0.9 0.00 0.00 0.00 71 1011.5
20260903061521 83 176 0.0 4.3 0.00 0.00 0.00 70 1011.5
20260903060013 83 175 0.0 3.5 0.00 0.00 0.00 69 1011.5
20260903054513 83 160 0.0 3.5 0.00 0.00 0.00 68 1011.4
20260903053008 84 159 0.0 5.2 0.00 0.00 0.00 66 1011.3
20260903051506 84 161 0.0 6.1 0.00 0.00 0.00 64 1011.2
20260903050003 84 167 0.9 9.6 0.00 0.00 0.00 63 1010.8
20260903044501 85 152 4.3 8.7 0.00 0.00 0.00 61 1010.8
20260903043100 86 161 0.9 7.8 0.00 0.00 0.00 59 1010.7
20260903041612 86 180 0.9 7.8 0.00 0.00 0.00 57 1010.9
20260903040059 87 171 1.7 7.8 0.00 0.00 0.00 56 1010.7
20260903034558 88 171 0.0 5.2 0.00 0.00 0.00 55 1010.6
20260903033058 89 156 0.0 4.3 0.00 0.00 0.00 53 1010.4
20260903031557 90 155 0.9 5.2 0.00 0.00 0.00 52 1010.1
20260903030058 90 153 0.0 5.2 0.00 0.00 0.00 50 1009.9
20260903024559 91 118 0.9 6.1 0.00 0.00 0.00 49 1009.6
20260903023056 92 157 0.0 2.6 0.00 0.00 0.00 45 1009.3
20260903021556 92 153 0.0 5.2 0.00 0.00 0.00 43 1008.9
20260903020056 91 158 0.0 2.6 0.00 0.00 0.00 39 1008.8
20260903014612 92 165 0.0 0.0 0.00 0.00 0.00 35 1008.4
20260903013102 93 166 0.0 0.0 0.00 0.00 0.00 33 1008.3
20260903011615 94 165 0.0 0.0 0.00 0.00 0.00 33 1008.2
20260903010107 95 165 0.0 0.0 0.00 0.00 0.00 32 1008.1
20260903004552 97 165 0.0 0.0 0.00 0.00 0.00 31 1008.2
20260903003106 98 166 0.0 0.9 0.00 0.00 0.00 29 1008.1
20260903001558 99 184 0.0 0.9 0.00 0.00 0.00 28 1008.2
20260903000051 100 177 0.9 4.3 0.00 0.00 0.00 26 1008.2
20260902234548 101 178 0.0 1.7 0.00 0.00 0.00 26 1008.2
20260902233048 101 214 0.0 2.6 0.00 0.00 0.00 26 1008.3
20260902231549 101 115 0.0 3.5 0.00 0.00 0.00 26 1008.3
20260902230055 102 151 0.0 1.7 0.00 0.00 0.00 26 1008.4
20260902224647 101 233 0.0 4.3 0.00 0.00 0.00 27 1008.4
20260902223045 101 78 0.0 1.7 0.00 0.00 0.00 26 1008.4
20260902221544 102 144 0.0 1.7 0.00 0.00 0.00 27 1008.4
20260902220044 102 144 0.0 7.8 0.00 0.00 0.00 27 1008.5
20260902214545 103 45 0.0 1.7 0.00 0.00 0.00 27 1008.6
20260902213040 104 153 0.9 6.1 0.00 0.00 0.00 26 1008.8
20260902211538 102 216 0.0 4.3 0.00 0.00 0.00 27 1008.9
20260902210035 102 161 0.0 2.6 0.00 0.00 0.00 28 1009.2